| time (UTC) | temp F | wind direction | speed MPH | gust MPH | rain 1hr in | rain 24hr in | rain mn in | humidity % | barometer mb |
| 20260505014108 | 75 | 143 | 2.0 | 4.0 | 0.00 | 0.00 | 0.00 | 72 | 1010.9 |
| 20260505013058 | 75 | 149 | 2.0 | 4.0 | 0.00 | 0.00 | 0.00 | 72 | 1010.7 |
| 20260505012048 | 75 | 165 | 2.0 | 8.0 | 0.00 | 0.00 | 0.00 | 72 | 1010.6 |
| 20260505011038 | 75 | 158 | 1.0 | 4.0 | 0.00 | 0.00 | 0.00 | 71 | 1010.7 |
| 20260505010028 | 76 | 218 | 2.0 | 8.0 | 0.00 | 0.00 | 0.00 | 70 | 1010.7 |
| 20260505005018 | 77 | 306 | 3.0 | 9.0 | 0.00 | 0.00 | 0.00 | 69 | 1010.7 |
| 20260505004109 | 77 | 182 | 4.0 | 9.0 | 0.00 | 0.00 | 0.00 | 68 | 1010.6 |
| 20260505003059 | 77 | 225 | 2.0 | 9.0 | 0.00 | 0.00 | 0.00 | 69 | 1010.6 |
| 20260505002049 | 77 | 124 | 1.0 | 4.0 | 0.00 | 0.00 | 0.00 | 69 | 1010.5 |
| 20260505001039 | 77 | 165 | 1.0 | 4.0 | 0.00 | 0.00 | 0.00 | 69 | 1010.6 |
| 20260505000029 | 78 | 158 | 2.0 | 8.0 | 0.00 | 0.00 | 0.00 | 68 | 1010.7 |
| 20260504235019 | 78 | 107 | 2.0 | 4.0 | 0.00 | 0.00 | 0.00 | 67 | 1010.7 |
| 20260504234110 | 78 | 150 | 1.0 | 6.0 | 0.00 | 0.00 | 0.00 | 66 | 1010.8 |
| 20260504233100 | 78 | 132 | 1.0 | 4.0 | 0.00 | 0.00 | 0.00 | 65 | 1011.0 |
| 20260504232050 | 78 | 142 | 3.0 | 8.0 | 0.00 | 0.00 | 0.00 | 64 | 1011.1 |
| 20260504231040 | 78 | 242 | 2.0 | 6.0 | 0.00 | 0.00 | 0.00 | 64 | 1011.1 |
| 20260504230050 | 79 | 141 | 2.0 | 4.0 | 0.00 | 0.00 | 0.00 | 63 | 1011.3 |
| 20260504225040 | 79 | 115 | 3.0 | 8.0 | 0.00 | 0.00 | 0.00 | 63 | 1011.3 |
| 20260504224111 | 79 | 148 | 3.0 | 7.0 | 0.00 | 0.00 | 0.00 | 63 | 1011.4 |
| 20260504223101 | 79 | 90 | 3.0 | 7.0 | 0.00 | 0.00 | 0.00 | 62 | 1011.4 |
| 20260504222050 | 80 | 193 | 2.0 | 7.0 | 0.00 | 0.00 | 0.00 | 62 | 1011.5 |
| 20260504221041 | 80 | 125 | 3.0 | 7.0 | 0.00 | 0.00 | 0.00 | 61 | 1011.6 |
| 20260504220030 | 79 | 175 | 2.0 | 8.0 | 0.00 | 0.00 | 0.00 | 62 | 1011.8 |
| 20260504215020 | 79 | 153 | 2.0 | 7.0 | 0.00 | 0.00 | 0.00 | 62 | 1012.1 |
| 20260504214112 | 80 | 148 | 2.0 | 6.0 | 0.00 | 0.00 | 0.00 | 60 | 1012.0 |
| 20260504213121 | 81 | 144 | 3.0 | 11.0 | 0.00 | 0.00 | 0.00 | 58 | 1012.2 |
| 20260504212051 | 81 | 128 | 2.0 | 7.0 | 0.00 | 0.00 | 0.00 | 58 | 1012.2 |
| 20260504211042 | 81 | 190 | 2.0 | 7.0 | 0.00 | 0.00 | 0.00 | 58 | 1012.3 |
| 20260504210031 | 81 | 177 | 2.0 | 7.0 | 0.00 | 0.00 | 0.00 | 57 | 1012.3 |
| 20260504205021 | 81 | 277 | 1.0 | 4.0 | 0.00 | 0.00 | 0.00 | 57 | 1012.6 |
| 20260504204112 | 82 | 265 | 2.0 | 9.0 | 0.00 | 0.00 | 0.00 | 57 | 1012.5 |
| 20260504203142 | 82 | 142 | 2.0 | 7.0 | 0.00 | 0.00 | 0.00 | 55 | 1012.7 |
| 20260504202052 | 81 | 334 | 1.0 | 4.0 | 0.00 | 0.00 | 0.00 | 57 | 1012.8 |
| 20260504201042 | 81 | 187 | 2.0 | 7.0 | 0.00 | 0.00 | 0.00 | 56 | 1013.2 |
| 20260504200032 | 82 | 186 | 2.0 | 4.0 | 0.00 | 0.00 | 0.00 | 55 | 1013.3 |
| 20260504195022 | 82 | 158 | 2.0 | 7.0 | 0.00 | 0.00 | 0.00 | 56 | 1013.4 |
| 20260504194113 | 82 | 118 | 2.0 | 4.0 | 0.00 | 0.00 | 0.00 | 55 | 1013.5 |
| 20260504193103 | 83 | 254 | 2.0 | 7.0 | 0.00 | 0.00 | 0.00 | 53 | 1013.8 |
| 20260504192053 | 84 | 221 | 1.0 | 3.0 | 0.00 | 0.00 | 0.00 | 53 | 1013.7 |
| 20260504191043 | 83 | 179 | 1.0 | 7.0 | 0.00 | 0.00 | 0.00 | 55 | 1013.8 |
| 20260504190033 | 81 | 143 | 1.0 | 9.0 | 0.00 | 0.00 | 0.00 | 55 | 1014.0 |
| 20260504185023 | 82 | 163 | 2.0 | 7.0 | 0.00 | 0.00 | 0.00 | 53 | 1014.0 |
| 20260504184114 | 83 | 174 | 2.0 | 6.0 | 0.00 | 0.00 | 0.00 | 52 | 1014.3 |
| 20260504183104 | 83 | 152 | 1.0 | 8.0 | 0.00 | 0.00 | 0.00 | 53 | 1014.5 |
| 20260504182054 | 81 | 184 | 2.0 | 7.0 | 0.00 | 0.00 | 0.00 | 53 | 1014.4 |
| 20260504181044 | 81 | 112 | 2.0 | 6.0 | 0.00 | 0.00 | 0.00 | 55 | 1014.5 |
| 20260504180034 | 81 | 307 | 1.0 | 7.0 | 0.00 | 0.00 | 0.00 | 56 | 1014.5 |
| 20260504175023 | 82 | 173 | 2.0 | 8.0 | 0.00 | 0.00 | 0.00 | 54 | 1014.9 |
| 20260504174115 | 80 | 191 | 2.0 | 4.0 | 0.00 | 0.00 | 0.00 | 56 | 1015.0 |
| 20260504173105 | 81 | 14 | 1.0 | 9.0 | 0.00 | 0.00 | 0.00 | 55 | 1015.0 |
| 20260504172054 | 80 | 19 | 1.0 | 4.0 | 0.00 | 0.00 | 0.00 | 57 | 1015.2 |
| 20260504171044 | 80 | 152 | 3.0 | 9.0 | 0.00 | 0.00 | 0.00 | 55 | 1015.6 |
| 20260504151046 | 76 | 185 | 3.0 | 8.0 | 0.00 | 0.00 | 0.00 | 62 | 1016.3 |
| 20260504141046 | 71 | 227 | 2.0 | 6.0 | 0.00 | 0.00 | 0.00 | 65 | 1016.2 |
| 20260504081051 | 60 | 0.0 | 0.0 | 0.00 | 0.00 | 0.00 | 77 | 1016.9 | |
| 20260504050123 | 64 | 0.0 | 0.0 | 0.00 | 0.00 | 0.00 | 68 | 1018.8 | |
| 20260504045033 | 64 | 0.0 | 0.0 | 0.00 | 0.00 | 0.00 | 68 | 1018.8 | |
| 20260504044023 | 64 | 0.0 | 0.0 | 0.00 | 0.00 | 0.00 | 68 | 1018.9 | |
| 20260504043114 | 64 | 0.0 | 0.0 | 0.00 | 0.00 | 0.00 | 68 | 1019.0 | |
| 20260504042104 | 64 | 0.0 | 0.0 | 0.00 | 0.00 | 0.00 | 67 | 1018.9 | |
| 20260504041054 | 65 | 0.0 | 0.0 | 0.00 | 0.00 | 0.00 | 66 | 1019.1 | |
| 20260504040044 | 65 | 129 | 0.0 | 1.0 | 0.00 | 0.00 | 0.00 | 64 | 1019.1 |
| 20260504035034 | 66 | 0.0 | 1.0 | 0.00 | 0.00 | 0.00 | 62 | 1018.9 | |
| 20260504034024 | 66 | 250 | 0.0 | 2.0 | 0.00 | 0.00 | 0.00 | 61 | 1019.0 |
| 20260504033135 | 67 | 164 | 1.0 | 2.0 | 0.00 | 0.00 | 0.00 | 60 | 1019.0 |
| 20260504032105 | 67 | 125 | 0.0 | 2.0 | 0.00 | 0.00 | 0.00 | 60 | 1018.9 |
| 20260504031055 | 68 | 158 | 0.0 | 2.0 | 0.00 | 0.00 | 0.00 | 59 | 1018.7 |
| 20260504030045 | 68 | 163 | 1.0 | 4.0 | 0.00 | 0.00 | 0.00 | 57 | 1018.9 |
| 20260504025055 | 69 | 186 | 1.0 | 6.0 | 0.00 | 0.00 | 0.00 | 56 | 1018.7 |
| 20260504024045 | 69 | 99 | 1.0 | 2.0 | 0.00 | 0.00 | 0.00 | 56 | 1018.6 |
| 20260504023115 | 69 | 116 | 0.0 | 2.0 | 0.00 | 0.00 | 0.00 | 55 | 1018.6 |
| 20260504022106 | 69 | 140 | 0.0 | 1.0 | 0.00 | 0.00 | 0.00 | 54 | 1018.6 |
| 20260504021056 | 70 | 172 | 1.0 | 4.0 | 0.00 | 0.00 | 0.00 | 52 | 1018.3 |
| 20260504020045 | 71 | 224 | 0.0 | 3.0 | 0.00 | 0.00 | 0.00 | 51 | 1018.3 |
| 20260504015035 | 71 | 154 | 1.0 | 7.0 | 0.00 | 0.00 | 0.00 | 49 | 1018.2 |